{"data":{"norad_id":68962,"intl_designator":"2026-099M","name":"STARLINK-36765","alt_names":[],"object_type":"PAYLOAD","status":"ACTIVE","operator":null,"country":"US","launch_date":"2026-05-01","launch_site_code":"AFETR","launch_vehicle":null,"mission":null,"orbit_class":"UNKNOWN","rcs_meters":null,"size_class":null,"mass_kg":null,"dimensions":null,"purposes":["comms"],"wikipedia_slug":null,"has_3d_model":false,"image_url":null,"decayed_at":null,"tle_current":{"epoch":"2026-09-19T21:50:22.995168Z","epoch_age_seconds":70334,"freshness":"FRESH","line1":"1 68962U 26099M   26262.90998837  .00017671  00000+0  53269-3 0  9997","line2":"2 68962  53.1587  78.5564 0000935  79.8717 280.2391 15.34412247 21813","mean_motion":15.34412247,"eccentricity":9.35e-5,"inclination_deg":53.1587,"raan_deg":78.5564,"arg_perigee_deg":79.8717,"mean_anomaly_deg":280.2391,"bstar":0.00053269,"rev_number":2181,"period_min":93.847009030032,"perigee_km":462.02722462526,"apogee_km":463.3064549433,"semimajor_km":6840.8038397843,"source":"CELESTRAK","updated_at":"2026-09-20T09:00:44.053649Z"}}}